Regional Weather Roundup
Issued by NWS

Home | Current Version | Previous Version | Graphics & Text | Print | Product List | Glossary On
Versions: 1 2 3 4 5 6 7 8 9 10 11 12 13 14 15 16 17 18 19 20 21 22 23 24 25 26 27 28 29 30 31 32 33 34 35 36 37 38 39 40 41 42 43 44 45 46 47 48 49 50
000
ASUS43 KIND 270059
RWRIN

WEATHER ROUNDUP FOR INDIANA
NATIONAL WEATHER SERVICE INDIANAPOLIS IN
800 PM EST SUN FEB 26 2017

NOTE: "FAIR" INDICATES FEW OR NO CLOUDS BELOW 12,000 FEET WITH NO
SIGNIFICANT WEATHER AND/OR OBSTRUCTIONS TO VISIBILITY.

* - STATION DOES NOT REPORT WEATHER SUCH AS PRECIPITATION OR FOG.

+ - STATION NOT QUALITY CONTROLLED BY THE NATIONAL WEATHER SERVICE.
    USE DATA WITH CAUTION...ESPECIALLY DEWPOINT AND RELATIVE
    HUMIDITY OBSERVATIONS.

INZ001>003-010>013-019-020-270200-
NORTHWEST INDIANA

CITY           SKY/WX    TMP DP  RH WIND       PRES   REMARKS
GARY /AIRPORT/ MOCLDY    46  14  27 SW14      30.02R
KNOX *+        CLEAR     39  -4  16 SW16      30.04R

$$

LMZ046-743>745-270200-
SOUTHERN LAKE MICHIGAN

STATION/POSITION TIME  TEMP    WIND        PRES    WAVE
                       AIR SEA DIR/SP/G            HT
                 (UTC) (F)     (DEG/KT/KT) (MB)    (FT)
BURNS HARBOR     0040   45     200/ 16/ 21 1016.6R
MICHIGAN CITY    0030   45     190/ 17/ 20   N/A

$$

INZ004-005-014>016-021>024-270200-
NORTH CENTRAL INDIANA

CITY           SKY/WX    TMP DP  RH WIND       PRES   REMARKS
GOSHEN         PTCLDY    39  20  46 S16       30.04R
SOUTH BEND     CLOUDY    42  20  41 SW17G24   30.03R

$$

INZ006>009-017-018-025>027-270200-
NORTHEAST INDIANA

CITY           SKY/WX    TMP DP  RH WIND       PRES   REMARKS
ANGOLA *+      CLEAR     37  21  52 SW15      30.03R
FORT WAYNE     CLEAR     35  22  58 SW10      30.09R WCI  27
KENDALLVILLE + CLEAR     38  20  48 SW15      30.05R

$$

INZ028-029-035-036-043>045-051>053-270200-
WEST CENTRAL INDIANA

CITY           SKY/WX    TMP DP  RH WIND       PRES   REMARKS
LAFAYETTE      CLOUDY    41  22  46 SW6       30.09R
TERRE HAUTE    CLOUDY    42  22  44 S5        30.11F

$$

INZ030>032-037>040-046>048-054>057-064-065-270200-
CENTRAL INDIANA

CITY           SKY/WX    TMP DP  RH WIND       PRES   REMARKS
COLUMBUS       CLOUDY    43  18  36 S6        30.15R
GREENWOOD *+   CLOUDY    44  17  34 SW5       30.13S
INDIANAPOLIS   CLOUDY    39  18  42 S8        30.12S
-EAGLE CREEK   CLOUDY    42  19  39 SW6       30.11R
KOKOMO +       PTCLDY    38  24  57 S12       30.10R
MT COMFORT *+  PTCLDY    41  16  36 SW6       30.12S
SHELBYVILLE    CLOUDY    43  17  35 SW8       30.13R

$$

INZ033-034-041-042-049-050-058-059-270200-
EAST CENTRAL INDIANA

CITY           SKY/WX    TMP DP  RH WIND       PRES   REMARKS
MUNCIE         MOCLDY    43  15  32 SW9       30.11R

$$

INZ060-061-067>069-081>083-085>088-270200-
SOUTHWEST INDIANA

CITY           SKY/WX    TMP DP  RH WIND       PRES   REMARKS
EVANSVILLE     CLOUDY    48  22  35 S3        30.14F
HUNTINGBURG *+ CLOUDY    44  22  41 SE5       30.14F

$$

INZ062-063-066-070>080-084-089>092-270200-
SOUTH CENTRAL AND SOUTHEAST INDIANA

CITY           SKY/WX    TMP DP  RH WIND       PRES   REMARKS
BLOOMINGTON    CLOUDY    44  14  29 S6        30.12F
MADISON *+     CLOUDY    43  18  36 S5        30.18S
SEYMOUR +      CLOUDY    43  23  45 S5        30.16R

$$




USA.gov is the U.S. government's official web portal to all federal, state and local government web resources and services.